[[{"header":{"parameterUnit":"m.s-1","parameterCategory":1,"la1":30.2992,"la2":30.254,"lo1":-89.0895,"lo2":-89.0443,"dy":0.0025,"dx":0.0025,"nx":19,"ny":19,"refTime":"2026-05-09T21:00:00:Z","depth":0,"parameterNumber":2,"parameterNumberName":"U-component_of_WINDS"},"data":[0,0,0,-3.067,-3.0672,-3.0727,-3.0727,-3.0824,-3.0825,0,0,0,0,0,0,0,0,0,0,0,-3.0668,-3.0669,-3.067,-3.0672,-3.0727,-3.0727,-3.0824,-3.0825,0,0,0,0,0,0,0,0,0,0,0,-3.0667,-3.0668,-3.067,-3.0672,-3.0727,-3.0727,-3.0823,-3.0773,0,0,0,0,0,0,0,0,0,0,-3.0715,-3.0725,-3.0668,-3.067,-3.0673,-3.0727,-3.0727,-3.077,-3.0776,-3.0809,0,-3.084,0,-3.0834,-3.0833,-3.0833,0,0,0,-3.0663,-3.072,-3.0723,-3.067,-3.0673,-3.0727,-3.0699,-3.0773,-3.078,-3.0818,-3.0842,-3.0844,-3.0836,-3.0834,-3.0834,-3.1053,-3.1055,0,0,-3.0659,-3.0685,-3.0718,-3.0728,-3.0718,-3.0698,-3.0701,-3.0777,-3.0806,-3.0842,-3.0846,-3.0837,-3.0834,-3.0835,-3.1052,-3.1054,0,0,0,-3.0657,-3.0684,-3.0684,-3.0725,-3.0732,-3.07,-3.0704,-3.0802,-3.08,-3.0847,-3.0839,-3.0835,-3.0836,-3.105,-3.1052,-3.1149,0,0,0,-3.0655,-3.0682,-3.0683,-3.0699,-3.0731,-3.0768,-3.0728,-3.0795,-3.0803,-3.0838,-3.0835,-3.0838,-3.1048,-3.1051,-3.1143,-3.1191,0,0,0,-3.066,-3.0682,-3.0695,-3.07,-3.0725,-3.0766,-3.0767,-3.0796,-3.0798,-3.0833,-3.0838,-3.1047,-3.1051,-3.1137,-3.1182,-3.1256,0,0,0,-3.0672,-3.0781,-3.0697,-3.0815,-3.0725,-3.0825,-3.0767,-3.084,-3.0882,-3.0836,-3.1049,-3.1052,-3.1136,-3.1176,-3.125,-3.1323,-3.1355,0,0,-3.0823,-3.08,-3.0867,-3.0794,-3.0915,-3.0814,-3.0951,-3.0966,-3.0947,-3.102,-3.1025,-3.1145,-3.1181,-3.1255,-3.153,-3.1556,0,0,0,-3.0924,-3.0973,-3.1,-3.104,-3.1053,-3.1069,-3.106,-3.1066,-3.1126,-3.0989,-3.1191,-3.1212,-3.1254,-3.1288,-3.131,-3.1345,-3.1069,-3.1068,-3.1068,-3.1175,-3.1143,-3.1253,-3.123,-3.127,-3.126,-3.1291,-3.1298,-3.1255,-3.1304,-3.1325,-3.1495,-3.1536,-3.1552,-3.1589,-3.1361,-3.1362,-3.1362,-3.1362,-3.1393,-3.1457,-3.1399,-3.1484,-3.1452,-3.1524,-3.1521,-3.1488,-3.1553,-3.1477,-3.1512,-3.1432,-3.1582,-3.1612,-3.1369,-3.1368,-3.1367,-3.1366,-3.1366,-3.1553,-3.1579,-3.1583,-3.1639,-3.1687,-3.166,-3.1725,-3.1693,-3.1665,-3.17,-3.1719,-3.1718,-3.1712,-3.1712,-3.1712,-3.1713,-3.1713,-3.1714,-3.1714,-3.1717,-3.1719,-3.1776,-3.18,-3.1823,-3.1849,-3.1842,-3.1865,-3.1882,-3.1854,-3.1854,-3.1808,-3.1602,-3.1551,-3.1723,-3.1722,-3.172,-3.172,-3.1719,-3.1949,-3.1892,-3.198,-3.2002,-3.2029,-3.208,-3.2039,-3.2088,-3.2102,-3.2135,-3.2082,-3.1935,-3.1909,-3.1891,-3.1848,-3.2088,-3.2088,-3.2088,-3.2088,-3.2084,-3.2068,-3.2151,-3.219,-3.2224,-3.2197,-3.23,-3.2298,-3.2286,-3.2293,-3.2255,-3.2196,-3.2179,-3.2163,-3.2139,-3.2099,-3.2396,-3.2397,-3.2397,-3.2225,-3.2211,-3.2303,-3.2289,-3.2309,-3.2327,-3.2424,-3.2473,-3.2448,-3.2409,-3.2299,-3.2286,-3.219,-3.2161,-3.2118,-3.2082,-3.2007,0,0]},{"header":{"parameterUnit":"m.s-1","parameterCategory":1,"la1":30.2992,"la2":30.254,"lo1":-89.0895,"lo2":-89.0443,"dy":0.0025,"dx":0.0025,"nx":19,"ny":19,"refTime":"2026-05-09T21:00:00:Z","depth":0,"parameterNumber":3,"parameterNumberName":"V-component_of_WINDS"},"data":[0,0,0,2.9152,2.9153,2.9205,2.9205,2.9252,2.9252,0,0,0,0,0,0,0,0,0,0,0,2.9126,2.9126,2.9152,2.9153,2.9205,2.9205,2.9252,2.9252,0,0,0,0,0,0,0,0,0,0,0,2.9126,2.9126,2.9126,2.9153,2.9205,2.9205,2.9252,2.9219,0,0,0,0,0,0,0,0,0,0,2.9172,2.9139,2.9126,2.9126,2.9153,2.9205,2.9205,2.9218,2.9221,2.9221,0,2.9219,0,2.9237,2.9255,2.9255,0,0,0,2.916,2.9136,2.916,2.9126,2.9154,2.9205,2.9184,2.922,2.9224,2.9225,2.922,2.9222,2.9237,2.9255,2.9255,2.9232,2.9231,0,0,2.9157,2.913,2.9157,2.9161,2.9154,2.9182,2.9185,2.9223,2.9215,2.922,2.9223,2.9238,2.9255,2.9255,2.9232,2.9231,0,0,0,2.9144,2.9127,2.9151,2.9159,2.917,2.9183,2.9187,2.9213,2.9223,2.9224,2.9239,2.9255,2.9255,2.9233,2.9232,2.9185,0,0,0,2.9143,2.912,2.9149,2.9133,2.9169,2.9193,2.9176,2.922,2.9225,2.9238,2.9255,2.9256,2.9233,2.9232,2.9187,2.9167,0,0,0,2.9126,2.9118,2.9123,2.9131,2.9153,2.9193,2.9205,2.9222,2.9234,2.9255,2.9256,2.9233,2.9232,2.9189,2.917,2.9153,0,0,0,2.9101,2.9079,2.9121,2.9102,2.9152,2.9163,2.9205,2.9214,2.9226,2.9255,2.9233,2.9232,2.919,2.9173,2.9155,2.9134,2.9123,0,0,2.9058,2.9072,2.9063,2.9103,2.91,2.9158,2.9147,2.9183,2.9209,2.9222,2.9222,2.9186,2.9171,2.9154,2.9068,2.9059,0,0,0,2.9041,2.9034,2.9039,2.905,2.9078,2.91,2.9141,2.9155,2.9168,2.9211,2.9176,2.9168,2.9159,2.915,2.9142,2.9136,2.9227,2.9227,2.9227,2.894,2.8976,2.8964,2.9005,2.9015,2.9058,2.9069,2.9094,2.9126,2.9117,2.9121,2.9065,2.9054,2.9048,2.9042,2.9113,2.9113,2.9113,2.9112,2.8881,2.8877,2.8921,2.8925,2.8962,2.8965,2.9004,2.9027,2.9034,2.9065,2.9059,2.9091,2.9037,2.9033,2.9109,2.911,2.911,2.911,2.9111,2.882,2.8825,2.8842,2.8863,2.8873,2.8916,2.8921,2.8954,2.8985,2.8979,2.8987,2.8988,2.8993,2.898,2.898,2.898,2.898,2.898,2.898,2.875,2.8772,2.8773,2.8801,2.8813,2.8832,2.8874,2.8886,2.8907,2.8931,2.8931,2.8963,2.9026,2.9041,2.8977,2.8977,2.8978,2.8978,2.8978,2.8678,2.87,2.8702,2.8713,2.8749,2.8757,2.88,2.8821,2.8835,2.8836,2.887,2.8911,2.8928,2.8934,2.8947,2.8862,2.8862,2.8862,2.8862,2.8627,2.8639,2.8649,2.8665,2.8685,2.8724,2.8723,2.8755,2.8791,2.8801,2.8818,2.8838,2.8843,2.8857,2.8865,2.8878,2.8778,2.8778,2.8777,2.8585,2.86,2.8595,2.8632,2.8662,2.8686,2.8687,2.8702,2.8747,2.8775,2.8811,2.8814,2.8846,2.8855,2.8883,2.8895,2.8919,0,0]}]]